GW4049 Weather Reports


time (UTC)temp
F
wind
direction
speed
knots
gust
knots
rain 1hr
in
rain 24hr
in
rain mn
in
humidity
%
barometer
mb
20260901022131 50 248 3.5 6.1 0.12 0.10 0.10 95 1034.5
20260901021621 50 241 3.5 6.1 0.19 0.09 0.09 95 1034.5
20260901021117 50 237 3.5 6.1 0.19 0.07 0.07 95 1034.5
20260901020613 51 252 5.2 7.0 0.19 0.05 0.05 94 1034.5
20260901020108 51 199 4.3 7.8 0.24 0.04 0.04 92 1034.0
20260901015603 52 239 3.5 7.0 0.12 0.02 0.02 90 1034.0
20260901015102 53 206 4.3 6.1 0.00 0.00 0.00 87 1034.0
20260901014557 55 246 7.0 8.7 0.00 0.00 0.00 79 1034.0
20260901014053 56 248 1.7 3.5 0.00 0.00 0.00 74 1033.7
20260901013549 56 195 1.7 2.6 0.00 0.00 0.00 76 1033.7
20260901013044 57 231 1.7 1.7 0.00 0.00 0.00 75 1033.5
20260901012544 57 242 0.0 0.9 0.00 0.00 0.00 69 1033.6
20260901012039 57 247 1.7 1.7 0.00 0.00 0.00 70 1033.2
20260901011536 57 298 1.7 1.7 0.00 0.00 0.00 67 1033.3
20260901011033 57 290 0.0 2.6 0.00 0.00 0.00 68 1033.1
20260901010528 57 296 0.9 3.5 0.00 0.00 0.00 68 1032.7
20260901010028 58 298 1.7 2.6 0.00 0.00 0.00 69 1032.8
20260901005522 58 273 0.0 1.7 0.00 0.00 0.00 69 1032.9
20260901005017 58 316 1.7 1.7 0.00 0.00 0.00 68 1032.9
20260901004512 58 284 1.7 1.7 0.00 0.00 0.00 69 1032.9
20260901004006 58 283 0.9 2.6 0.00 0.00 0.00 69 1032.9
20260901003502 58 281 1.7 1.7 0.00 0.00 0.00 69 1032.9
20260901002959 59 348 3.5 5.2 0.00 0.00 0.00 68 1033.2
20260901002454 59 298 0.9 2.6 0.00 0.00 0.00 68 1033.2
20260901001948 60 304 3.5 7.0 0.00 0.00 0.00 64 1033.3
20260901001444 60 314 0.9 2.6 0.00 0.00 0.00 62 1033.1
20260901000939 61 326 0.9 2.6 0.00 0.00 0.00 63 1033.2
20260901000435 60 276 0.9 1.7 0.00 0.00 0.00 58 1033.3
20260831235933 60 270 0.0 0.9 0.00 0.00 0.00 65 1033.6
20260831235428 61 254 0.9 0.9 0.00 0.00 0.00 63 1033.6
20260831234923 62 352 1.7 2.6 0.00 0.00 0.00 55 1033.6
20260831234418 62 278 0.0 1.7 0.00 0.00 0.00 57 1033.3
20260831233913 63 264 0.0 5.2 0.00 0.00 0.00 52 1033.2
20260831233408 63 318 1.7 7.0 0.00 0.00 0.00 52 1033.2
20260831232904 63 269 0.0 1.7 0.00 0.00 0.00 52 1032.9
20260831232400 63 8 3.5 5.2 0.00 0.00 0.00 52 1032.9
20260831231855 64 19 3.5 5.2 0.00 0.00 0.00 51 1033.1
20260831231352 63 297 0.9 5.2 0.00 0.00 0.00 52 1032.9
20260831230847 63 326 1.7 6.1 0.00 0.00 0.00 51 1033.1
20260831230341 64 298 0.9 8.7 0.00 0.00 0.00 53 1032.9
20260831225836 64 325 1.7 11.3 0.00 0.00 0.00 53 1032.9
20260831225330 64 0 2.6 3.5 0.00 0.00 0.00 51 1032.9
20260831224826 65 343 2.6 7.0 0.00 0.00 0.00 51 1033.1
20260831224321 64 339 0.9 1.7 0.00 0.00 0.00 53 1033.2
20260831223816 64 341 2.6 7.0 0.00 0.00 0.00 52 1033.2
20260831223312 65 96 0.9 1.7 0.00 0.00 0.00 52 1033.3
20260831222809 64 255 0.9 2.6 0.00 0.00 0.00 53 1033.2
20260831222306 64 312 3.5 5.2 0.00 0.00 0.00 53 1033.1
20260831221759 66 341 0.9 2.6 0.00 0.00 0.00 51 1033.1
20260831221254 65 304 2.6 3.5 0.00 0.00 0.00 51 1033.3
20260831220755 65 20 5.2 6.1 0.00 0.00 0.00 51 1033.3
20260831220250 65 348 1.7 7.8 0.00 0.00 0.00 52 1033.3
20260831215749 64 269 0.0 3.5 0.00 0.00 0.00 53 1033.5
20260831215246 64 248 1.7 2.6 0.00 0.00 0.00 54 1033.3
20260831214742 64 65 5.2 7.8 0.00 0.00 0.00 53 1033.2
20260831214239 64 299 0.9 3.5 0.00 0.00 0.00 53 1033.5
20260831213735 64 0 1.7 8.7 0.00 0.00 0.00 53 1033.2
20260831213232 65 203 1.7 3.5 0.00 0.00 0.00 51 1033.3
20260831212731 66 76 1.7 7.0 0.00 0.00 0.00 52 1033.3
20260831212228 66 50 4.3 6.1 0.00 0.00 0.00 51 1033.5
20260831211726 65 348 4.3 8.7 0.00 0.00 0.00 52 1033.6
20260831211222 66 88 5.2 7.8 0.00 0.00 0.00 50 1033.6
20260831210716 68 277 1.7 7.0 0.00 0.00 0.00 50 1033.7
20260831210213 66 228 0.9 3.5 0.00 0.00 0.00 50 1033.6
20260831205712 67 311 2.6 5.2 0.00 0.00 0.00 50 1034.0
20260831205208 67 343 2.6 3.5 0.00 0.00 0.00 51 1033.9
20260831204703 65 28 1.7 7.0 0.00 0.00 0.00 52 1033.6
20260831204202 65 84 2.6 6.1 0.00 0.00 0.00 53 1033.9
20260831203701 65 257 2.6 6.1 0.00 0.00 0.00 52 1033.7
20260831203156 65 101 3.5 7.0 0.00 0.00 0.00 53 1034.0
20260831202654 65 304 1.7 3.5 0.00 0.00 0.00 53 1033.9
20260831202149 66 226 5.2 7.8 0.00 0.00 0.00 53 1034.3
20260831201648 66 135 6.1 7.0 0.00 0.00 0.00 52 1033.9
20260831201143 67 199 3.5 7.0 0.00 0.00 0.00 51 1034.1
20260831200639 66 94 4.3 6.1 0.00 0.00 0.00 52 1034.3
20260831200138 64 99 2.6 3.5 0.00 0.00 0.00 52 1034.5
20260831195634 65 155 2.6 5.2 0.00 0.00 0.00 52 1034.1
20260831195129 64 246 0.9 6.1 0.00 0.00 0.00 53 1034.3
20260831194624 64 330 1.7 3.5 0.00 0.00 0.00 52 1034.4
20260831194119 64 180 2.6 7.0 0.00 0.00 0.00 53 1034.4
20260831193614 65 289 0.9 5.2 0.00 0.00 0.00 52 1034.5
20260831193109 64 242 1.7 3.5 0.00 0.00 0.00 51 1034.5
20260831192604 64 284 0.0 1.7 0.00 0.00 0.00 51 1034.9
20260831192059 65 52 2.6 7.0 0.00 0.00 0.00 50 1034.4
20260831191555 65 64 5.2 7.8 0.00 0.00 0.00 49 1034.5
20260831191050 64 242 1.7 5.2 0.00 0.00 0.00 50 1034.6
20260831190546 64 348 5.2 6.1 0.00 0.00 0.00 50 1035.0
20260831190044 64 1 0.9 6.1 0.00 0.00 0.00 51 1035.0
20260831185540 64 293 0.9 1.7 0.00 0.00 0.00 53 1034.9
20260831185036 64 290 2.6 3.5 0.00 0.00 0.00 51 1034.9
20260831184530 65 94 1.7 6.1 0.00 0.00 0.00 51 1035.2
20260831184026 64 59 4.3 6.1 0.00 0.00 0.00 52 1034.9
20260831183525 64 53 1.7 3.5 0.00 0.00 0.00 53 1035.2
20260831183024 63 259 0.9 2.6 0.00 0.00 0.00 53 1035.2
20260831182519 63 219 1.7 1.7 0.00 0.00 0.00 52 1035.2
20260831182014 62 275 1.7 3.5 0.00 0.00 0.00 53 1035.2
20260831181509 62 3 1.7 2.6 0.00 0.00 0.00 54 1035.2
20260831181004 63 277 0.9 2.6 0.00 0.00 0.00 53 1035.3
20260831180458 63 97 2.6 6.1 0.00 0.00 0.00 52 1035.0
20260831175958 64 318 1.7 3.5 0.00 0.00 0.00 51 1035.4
20260831175454 64 201 1.7 3.5 0.00 0.00 0.00 50 1035.4
20260831174950 65 280 0.9 5.2 0.00 0.00 0.00 49 1035.4
20260831174440 64 262 0.0 0.9 0.00 0.00 0.00 51 1035.3
20260831173939 63 274 1.7 2.6 0.00 0.00 0.00 53 1035.4
20260831173438 63 103 1.7 3.5 0.00 0.00 0.00 51 1035.4
20260831172934 63 153 0.9 5.2 0.00 0.00 0.00 52 1035.4
20260831172429 63 224 1.7 1.7 0.00 0.00 0.00 49 1035.6
20260831171924 63 261 0.9 2.6 0.00 0.00 0.00 53 1035.4
20260831171420 62 221 0.9 2.6 0.00 0.00 0.00 51 1035.6
20260831170916 63 294 0.9 1.7 0.00 0.00 0.00 51 1035.3
20260831170412 62 286 2.6 2.6 0.00 0.00 0.00 50 1035.4
20260831165909 63 44 1.7 5.2 0.00 0.00 0.00 51 1035.6
20260831165405 63 59 2.6 7.0 0.00 0.00 0.00 50 1035.3
20260831164901 63 236 2.6 7.0 0.00 0.00 0.00 50 1035.4
20260831164357 64 282 0.9 1.7 0.00 0.00 0.00 49 1035.2
20260831163852 64 320 1.7 3.5 0.00 0.00 0.00 49 1035.3
20260831163347 64 128 2.6 2.6 0.00 0.00 0.00 47 1035.4
20260831162846 64 238 0.9 1.7 0.00 0.00 0.00 48 1035.2
20260831162342 65 260 0.0 3.5 0.00 0.00 0.00 47 1035.2
20260831161840 65 230 0.0 0.9 0.00 0.00 0.00 46 1035.4
20260831161336 63 346 1.7 2.6 0.00 0.00 0.00 48 1035.2
20260831160831 64 242 0.0 0.9 0.00 0.00 0.00 49 1035.2
20260831160326 63 274 0.0 2.6 0.00 0.00 0.00 49 1034.9
20260831155820 63 254 0.0 1.7 0.00 0.00 0.00 49 1035.2
20260831155315 62 259 0.0 2.6 0.00 0.00 0.00 48 1035.2
20260831154811 64 250 0.0 0.9 0.00 0.00 0.00 46 1035.2
20260831154307 63 246 0.0 0.9 0.00 0.00 0.00 46 1034.8
20260831153805 63 231 0.9 2.6 0.00 0.00 0.00 46 1035.0
20260831153301 63 230 0.9 3.5 0.00 0.00 0.00 45 1034.9
20260831152757 63 236 5.2 6.1 0.00 0.00 0.00 45 1034.6
20260831152253 64 254 0.9 2.6 0.00 0.00 0.00 46 1035.0
20260831151748 64 291 1.7 2.6 0.00 0.00 0.00 44 1034.6
20260831151247 64 223 0.0 0.9 0.00 0.00 0.00 46 1034.6
20260831150742 64 23 1.7 2.6 0.00 0.00 0.00 50 1034.8
20260831150238 65 279 0.9 2.6 0.00 0.00 0.00 44 1034.8
20260831145736 65 234 0.9 1.7 0.00 0.00 0.00 47 1034.8
20260831145233 64 248 0.9 1.7 0.00 0.00 0.00 45 1034.6
20260831144729 62 247 0.0 0.9 0.00 0.00 0.00 46 1034.9
20260831144225 62 237 0.9 5.2 0.00 0.00 0.00 46 1035.0
20260831143724 61 263 0.0 0.0 0.00 0.00 0.00 47 1034.9
20260831143220 61 239 0.9 0.9 0.00 0.00 0.00 51 1034.8
20260831142715 60 257 0.9 2.6 0.00 0.00 0.00 49 1034.6
20260831142211 60 229 1.7 1.7 0.00 0.00 0.00 51 1035.0
20260831141710 59 244 0.0 0.0 0.00 0.00 0.00 53 1034.8
20260831141205 58 250 0.0 0.9 0.00 0.00 0.00 61 1034.8
20260831140704 57 243 0.9 1.7 0.00 0.00 0.00 58 1034.5
20260831140159 56 240 1.7 1.7 0.00 0.00 0.00 59 1034.6
20260831135657 55 233 0.9 1.7 0.00 0.00 0.00 64 1034.4
20260831135153 55 234 0.9 1.7 0.00 0.00 0.00 62 1034.3
20260831134649 55 240 0.9 1.7 0.00 0.00 0.00 62 1034.1
20260831134144 54 219 1.7 1.7 0.00 0.00 0.00 63 1034.3
20260831133643 54 215 1.7 1.7 0.00 0.00 0.00 63 1034.0
20260831133138 54 237 0.9 1.7 0.00 0.00 0.00 63 1034.0
20260831132634 54 240 0.9 0.9 0.00 0.00 0.00 61 1033.9
20260831132133 54 232 1.7 1.7 0.00 0.00 0.00 59 1033.9
20260831131628 55 218 1.7 2.6 0.00 0.00 0.00 57 1033.9
20260831131124 55 233 1.7 2.6 0.00 0.00 0.00 54 1033.7
20260831130619 55 222 0.9 2.6 0.00 0.00 0.00 53 1033.6
20260831130115 55 235 0.9 0.9 0.00 0.00 0.00 57 1033.5
20260831125613 55 222 1.7 1.7 0.00 0.00 0.00 56 1033.6
20260831125109 55 223 1.7 2.6 0.00 0.00 0.00 56 1033.7
20260831124605 53 228 1.7 2.6 0.00 0.00 0.00 57 1033.5
20260831124101 54 222 1.7 2.6 0.00 0.00 0.00 57 1033.3
20260831123600 53 226 1.7 2.6 0.00 0.00 0.00 60 1033.6
20260831123054 54 213 1.7 2.6 0.00 0.00 0.00 58 1033.5
20260831122549 54 218 1.7 2.6 0.00 0.00 0.00 58 1033.3
20260831122044 55 242 0.9 2.6 0.00 0.00 0.00 57 1033.2
20260831121539 56 211 1.7 2.6 0.00 0.00 0.00 56 1033.1
20260831121035 55 189 3.5 3.5 0.00 0.00 0.00 53 1033.1
20260831120534 55 224 1.7 3.5 0.00 0.00 0.00 54 1033.2
20260831120030 55 218 1.7 2.6 0.00 0.00 0.00 55 1032.9
20260831115526 55 196 1.7 3.5 0.00 0.00 0.00 56 1033.2
20260831115021 55 217 1.7 5.2 0.00 0.00 0.00 59 1033.1
20260831114520 54 212 2.6 2.6 0.00 0.00 0.00 56 1032.9
20260831114016 53 201 2.6 3.5 0.00 0.00 0.00 58 1032.9
20260831113514 54 208 2.6 2.6 0.00 0.00 0.00 59 1033.2
20260831113010 54 216 1.7 2.6 0.00 0.00 0.00 58 1033.3
20260831112509 54 211 2.6 2.6 0.00 0.00 0.00 59 1032.8
20260831112004 54 232 2.6 2.6 0.00 0.00 0.00 55 1032.9
20260831111501 55 202 2.6 3.5 0.00 0.00 0.00 57 1033.2
20260831110956 54 210 2.6 2.6 0.00 0.00 0.00 61 1033.1
20260831110451 55 218 2.6 3.5 0.00 0.00 0.00 56 1032.7
20260831105950 54 207 1.7 2.6 0.00 0.00 0.00 59 1032.8
20260831105445 54 232 1.7 3.5 0.00 0.00 0.00 57 1032.9
20260831104945 54 202 2.6 2.6 0.00 0.00 0.00 56 1032.9
20260831104442 54 217 3.5 3.5 0.00 0.00 0.00 55 1032.8
20260831103937 52 242 2.6 3.5 0.00 0.00 0.00 58 1033.1
20260831103432 52 212 2.6 2.6 0.00 0.00 0.00 61 1032.7
20260831102928 52 205 1.7 2.6 0.00 0.00 0.00 64 1032.8
20260831102427 52 237 0.0 0.9 0.00 0.00 0.00 58 1032.5
20260831101922 51 230 1.7 2.6 0.00 0.00 0.00 64 1032.8
20260831101418 51 208 2.6 2.6 0.00 0.00 0.00 66 1032.8
20260831100914 51 204 2.6 2.6 0.00 0.00 0.00 65 1032.5
20260831100409 51 209 2.6 2.6 0.00 0.00 0.00 65 1032.5
20260831095904 51 205 2.6 2.6 0.00 0.00 0.00 65 1032.4
20260831095403 51 208 2.6 2.6 0.00 0.00 0.00 65 1032.5
20260831094859 51 205 2.6 2.6 0.00 0.00 0.00 67 1032.3
20260831094354 50 209 2.6 2.6 0.00 0.00 0.00 67 1032.4
20260831093850 50 204 2.6 2.6 0.00 0.00 0.00 68 1032.1
20260831093345 51 212 1.7 2.6 0.00 0.00 0.00 67 1032.3
20260831092842 51 209 2.6 2.6 0.00 0.00 0.00 66 1032.1
20260831092337 51 221 1.7 2.6 0.00 0.00 0.00 66 1032.1
20260831091832 52 226 1.7 1.7 0.00 0.00 0.00 66 1032.3
20260831091328 52 236 0.9 1.7 0.00 0.00 0.00 67 1032.1
20260831090822 53 245 0.9 1.7 0.00 0.00 0.00 64 1032.1
20260831090318 53 226 1.7 1.7 0.00 0.00 0.00 65 1032.0
20260831085814 52 238 2.6 3.5 0.00 0.00 0.00 66 1032.0
20260831085309 53 228 1.7 3.5 0.00 0.00 0.00 63 1032.0
20260831084804 52 219 1.7 3.5 0.00 0.00 0.00 63 1032.1
20260831084300 51 240 0.9 2.6 0.00 0.00 0.00 69 1032.1
20260831083755 51 210 1.7 3.5 0.00 0.00 0.00 68 1032.3
20260831083246 51 226 1.7 1.7 0.00 0.00 0.00 67 1032.0
20260831082744 51 220 1.7 2.6 0.00 0.00 0.00 68 1032.3
20260831082239 51 212 1.7 2.6 0.00 0.00 0.00 67 1032.3
20260831081735 51 213 2.6 2.6 0.00 0.00 0.00 68 1032.4
20260831081230 51 219 1.7 2.6 0.00 0.00 0.00 65 1032.5
20260831080725 51 211 2.6 2.6 0.00 0.00 0.00 65 1032.3
20260831080220 51 227 0.9 2.6 0.00 0.00 0.00 68 1032.4
20260831075716 51 224 1.7 1.7 0.00 0.00 0.00 67 1032.4
20260831075211 52 217 1.7 2.6 0.00 0.00 0.00 66 1032.4
20260831074710 52 212 1.7 2.6 0.00 0.00 0.00 67 1032.7
20260831074204 52 225 1.7 1.7 0.00 0.00 0.00 65 1032.3
20260831073659 52 215 1.7 1.7 0.00 0.00 0.00 66 1032.7
20260831073159 52 240 0.9 1.7 0.00 0.00 0.00 65 1032.8
20260831072654 52 219 1.7 2.6 0.00 0.00 0.00 64 1032.9
20260831072151 52 240 0.9 1.7 0.00 0.00 0.00 63 1032.7
20260831071650 53 238 1.7 2.6 0.00 0.00 0.00 69 1032.8
20260831071145 52 249 0.0 1.7 0.00 0.00 0.00 66 1032.7
20260831070644 53 247 0.0 1.7 0.00 0.00 0.00 69 1032.9
20260831070133 55 198 1.7 2.6 0.00 0.00 0.00 61 1032.8
20260831065631 54 236 1.7 2.6 0.00 0.00 0.00 61 1032.7
20260831065125 53 229 1.7 2.6 0.00 0.00 0.00 66 1032.8
20260831064620 53 220 1.7 2.6 0.00 0.00 0.00 67 1033.1
20260831064116 53 218 1.7 2.6 0.00 0.00 0.00 65 1033.1
20260831063612 54 210 1.7 2.6 0.00 0.00 0.00 64 1032.9
20260831063106 53 213 1.7 2.6 0.00 0.00 0.00 63 1033.1
20260831062601 53 210 1.7 2.6 0.00 0.00 0.00 66 1033.1
20260831062100 54 215 1.7 2.6 0.00 0.00 0.00 61 1033.3
20260831061558 55 194 2.6 2.6 0.00 0.00 0.00 59 1033.5
20260831061055 55 246 1.7 2.6 0.00 0.00 0.00 59 1033.2
20260831060550 54 228 1.7 3.5 0.00 0.00 0.00 62 1033.6
20260831060045 55 235 1.7 3.5 0.00 0.00 0.00 61 1033.3
20260831055539 54 203 1.7 2.6 0.00 0.10 0.10 62 1033.6
20260831055035 54 220 1.7 5.2 0.00 0.10 0.10 62 1033.7
20260831054534 54 242 1.7 2.6 0.00 0.10 0.10 60 1033.9
20260831054033 54 221 1.7 2.6 0.00 0.10 0.10 60 1033.9
20260831053532 55 219 1.7 2.6 0.00 0.10 0.10 59 1033.6
20260831053027 55 219 4.3 5.2 0.00 0.10 0.10 58 1033.7
20260831052526 55 236 2.6 2.6 0.00 0.10 0.10 58 1033.7
20260831052021 56 238 2.6 3.5 0.00 0.10 0.10 58 1033.7
20260831051518 56 225 1.7 7.8 0.00 0.10 0.10 59 1033.6
20260831051012 56 259 1.7 5.2 0.00 0.10 0.10 56 1033.9
20260831050512 56 222 2.6 5.2 0.00 0.10 0.10 57 1034.0
20260831050011 56 242 2.6 5.2 0.00 0.10 0.10 57 1033.9
20260831045510 57 237 3.5 7.8 0.00 0.10 0.10 56 1034.4
20260831045006 57 268 4.3 6.1 0.00 0.10 0.10 55 1034.4
20260831044501 57 264 3.5 6.1 0.00 0.10 0.10 55 1034.6
20260831043956 56 219 9.6 11.3 0.00 0.10 0.10 55 1034.8
20260831043455 56 237 1.7 1.7 0.00 0.10 0.10 62 1034.5
20260831042951 57 292 0.0 1.7 0.00 0.10 0.10 58 1034.8
20260831042450 58 225 1.7 3.5 0.00 0.10 0.10 53 1034.8
20260831041945 57 259 2.6 3.5 0.00 0.10 0.10 54 1034.5
20260831041439 57 212 3.5 7.0 0.00 0.10 0.10 53 1034.4
20260831040934 56 224 1.7 5.2 0.00 0.10 0.10 58 1034.1
20260831040429 56 214 2.6 2.6 0.00 0.10 0.10 55 1034.3
20260831035926 56 210 2.6 2.6 0.00 0.10 0.10 54 1033.9
20260831035426 56 224 1.7 2.6 0.00 0.10 0.10 58 1034.0
20260831034921 55 221 1.7 1.7 0.00 0.10 0.10 60 1033.6
20260831034416 57 245 0.9 1.7 0.00 0.10 0.10 57 1033.6
20260831033911 58 222 1.7 2.6 0.00 0.10 0.10 52 1033.5
20260831033407 58 224 1.7 3.5 0.00 0.10 0.10 49 1033.6
20260831032902 58 247 0.9 1.7 0.00 0.10 0.10 50 1033.3
20260831032356 59 208 1.7 6.1 0.00 0.10 0.10 51 1033.6
20260831031852 58 250 1.7 3.5 0.00 0.10 0.10 50 1033.5
20260831031351 57 240 1.7 3.5 0.00 0.10 0.10 51 1033.5
20260831030846 56 234 1.7 3.5 0.00 0.10 0.10 58 1033.5
20260831030344 55 269 0.9 2.6 0.00 0.10 0.10 56 1033.3
20260831025843 54 247 0.0 0.0 0.00 0.10 0.10 65 1033.5
20260831025343 53 250 0.0 2.6 0.00 0.10 0.10 68 1033.3
20260831024838 53 222 1.7 2.6 0.00 0.10 0.10 64 1033.2
20260831024337 54 232 1.7 2.6 0.00 0.10 0.10 63 1033.2
20260831023832 56 202 2.6 2.6 0.00 0.10 0.10 58 1032.9
20260831023330 55 235 1.7 5.2 0.00 0.10 0.10 58 1033.2
20260831022826 55 199 2.6 3.5 0.00 0.10 0.10 60 1033.3